Provo, UT

12:01 AM MST on November 20, 2019 (GMT -0700)
Provo Municipal

Weather History for KPVU - August, 2019

Change the Weather History Date:

Friday, August 23, 2019

  Actual Average Record
Temperature  
Mean Temperature 70 °F -  
Max Temperature 86 °F 84 °F 100 °F (1986)
Min Temperature 57 °F 55 °F 51 °F (2014)
Cooling Degree Days 6    
Growing Degree Days 20 (Base 50)    
Moisture  
Dew Point 48 °F    
Average Humidity 44    
Maximum Humidity 67    
Minimum Humidity 24    
Precipitation  
Precipitation 0.00 in - - ()
Sea Level Pressure  
Sea Level Pressure 29.83 in    
Wind  
Wind Speed 8 mph (NNW)    
Max Wind Speed 15 mph    
Max Gust Speed -    
Visibility 10 miles    
Events      
Averages and records for this station are not official NWS values.
T = Trace of Precipitation, MM = Missing Value Source: NWS Daily Summary

Daily Weather History Graph

Daily Weather History Graph

Search for Another Location

Airport or City:

Astronomy

Aug. 23, 2019 Rise Set
Actual Time 6:45 AM MDT 8:12 PM MDT
Civil Twilight 6:17 AM MDT 8:41 PM MDT
Nautical Twilight 5:42 AM MDT 9:15 PM MDT
Astronomical Twilight 5:06 AM MDT 9:51 PM MDT
Moon 12:05 AM MDT (8/23) 2:27 PM MDT (8/23)
Length of Visible Light 14h 23m
Length of Day
13h 26m
Waning Gibbous, 49% of the Moon is Illuminated
Aug 23
Waning Gibbous
Aug 30
New
Sep 5
First Quarter
Sep 13
Full
Sep 21
Last Quarter

Hourly Weather History & Observations

Time (MDT) Temp. Heat Index Dew Point Humidity Pressure Visibility Wind Dir Wind Speed Gust Speed Precip Events Conditions
12:56 AM 71.1 °F - 48.9 °F 45% 29.72 in 10.0 mi NNW 12.7 mph - N/A   Clear
1:56 AM 69.1 °F - 48.9 °F 49% 29.73 in 10.0 mi NNW 8.1 mph - N/A   Clear
2:56 AM 61.0 °F - 44.1 °F 54% 29.77 in 10.0 mi ENE 4.6 mph - N/A   Clear
3:56 AM 64.0 °F - 46.0 °F 52% 29.78 in 10.0 mi ESE 4.6 mph - N/A   Clear
4:56 AM 61.0 °F - 48.9 °F 64% 29.81 in 10.0 mi South 6.9 mph - N/A   Clear
5:56 AM 57.9 °F - 46.9 °F 67% 29.84 in 10.0 mi East 4.6 mph - N/A   Clear
6:56 AM 59.0 °F - 44.1 °F 58% 29.86 in 10.0 mi ESE 5.8 mph - N/A   Clear
7:56 AM 61.0 °F - 46.0 °F 58% 29.89 in 10.0 mi Calm Calm - N/A   Clear
8:56 AM 68.0 °F - 46.0 °F 45% 29.88 in 10.0 mi SSE 8.1 mph - N/A   Clear
9:56 AM 71.1 °F - 46.0 °F 41% 29.89 in 10.0 mi ESE 8.1 mph - N/A   Clear
10:56 AM 73.0 °F - 46.9 °F 39% 29.90 in 10.0 mi SW 5.8 mph - N/A   Clear
11:56 AM 75.0 °F - 45.0 °F 34% 29.89 in 10.0 mi West 5.8 mph - N/A   Clear
12:56 PM 78.1 °F - 41.0 °F 27% 29.87 in 10.0 mi West 5.8 mph - N/A   Clear
1:56 PM 82.0 °F - 42.1 °F 24% 29.84 in 10.0 mi North 4.6 mph - N/A   Partly Cloudy
2:56 PM 84.0 °F - 43.0 °F 24% 29.84 in 10.0 mi Variable 3.5 mph - N/A   Scattered Clouds
3:56 PM 82.9 °F - 46.9 °F 28% 29.82 in 10.0 mi WNW 4.6 mph - N/A   Scattered Clouds
4:56 PM 84.0 °F - 48.9 °F 29% 29.81 in 10.0 mi NW 10.4 mph - N/A   Clear
4:58 PM 84.0 °F - 48.9 °F 29% 29.81 in 10.0 mi NW 10.4 mph - N/A   Scattered Clouds
5:56 PM 84.0 °F 83.0 °F 55.9 °F 38% 29.82 in 10.0 mi WNW 12.7 mph - N/A   Scattered Clouds
6:56 PM 81.0 °F 80.7 °F 55.0 °F 41% 29.81 in 10.0 mi NW 15.0 mph - N/A   Scattered Clouds
7:56 PM 78.1 °F - 55.9 °F 46% 29.82 in 10.0 mi NW 9.2 mph - N/A   Scattered Clouds
8:56 PM 75.9 °F - 54.0 °F 46% 29.82 in 10.0 mi NW 11.5 mph - N/A   Partly Cloudy
9:56 PM 73.0 °F - 54.0 °F 51% 29.84 in 10.0 mi East 3.5 mph - N/A   Clear
10:56 PM 68.0 °F - 52.0 °F 56% 29.85 in 10.0 mi SSE 5.8 mph - N/A   Clear
11:56 PM 66.0 °F - 51.1 °F 59% 29.86 in 10.0 mi East 4.6 mph - N/A   Clear